FW0220 Weather Reports


time (UTC)temp
C
wind
direction
speed
KPH
gust
KPH
rain 1hr
cm
rain 24hr
cm
rain mn
cm
humidity
%
barometer
mb
20211017154445 12 44 1.6 6.4 0.00 1.40 0.03 78 1016.1
20211017153945 12 33 1.6 8.0 0.00 1.40 0.03 77 1016.0
20211017153443 12 34 3.2 9.7 0.00 1.40 0.03 77 1015.9
20211017152943 12 36 3.2 9.7 0.00 1.40 0.03 75 1016.0
20211017152442 12 34 3.2 11.3 0.00 1.40 0.03 75 1016.0
20211017151943 12 28 3.2 12.9 0.00 1.40 0.03 76 1016.0
20211017151441 12 138 3.2 12.9 0.00 1.40 0.03 76 1016.0
20211017150941 12 152 1.6 11.3 0.00 1.40 0.03 78 1016.0
20211017150442 12 136 1.6 8.0 0.00 1.40 0.03 79 1016.1
20211017145939 12 131 1.6 4.8 0.00 1.40 0.03 78 1016.1
20211017145440 12 129 1.6 6.4 0.00 1.40 0.03 79 1016.1
20211017144938 12 142 3.2 17.7 0.00 1.40 0.03 81 1016.2
20211017144435 12 175 3.2 17.7 0.00 1.40 0.03 81 1016.2
20211017143934 11 221 1.6 8.0 0.00 1.40 0.03 84 1016.3
20211017143431 11 225 1.6 8.0 0.00 1.40 0.03 85 1016.3
20211017142928 11 168 0.0 4.8 0.00 1.40 0.03 86 1016.2
20211017142430 11 165 0.0 4.8 0.00 1.40 0.03 87 1016.3
20211017141924 10 165 1.6 4.8 0.00 1.40 0.03 88 1016.3
20211017141418 10 165 1.6 6.4 0.00 1.40 0.03 87 1016.4
20211017140912 10 167 1.6 6.4 0.00 1.40 0.03 87 1016.4
20211017140406 10 165 1.6 6.4 0.00 1.40 0.03 88 1016.4
20211017135901 10 165 1.6 4.8 0.00 1.40 0.03 89 1016.4
20211017135355 10 165 3.2 6.4 0.00 1.40 0.03 90 1016.4
20211017134849 10 165 3.2 6.4 0.00 1.40 0.03 91 1016.4
20211017134343 10 165 1.6 6.4 0.00 1.40 0.03 90 1016.4
20211017133836 10 165 0.0 3.2 0.00 1.40 0.03 91 1016.4
20211017133332 10 173 0.0 3.2 0.00 1.40 0.03 92 1016.5
20211017132825 10 173 1.6 6.4 0.00 1.40 0.03 93 1016.5
20211017132319 10 173 3.2 8.0 0.00 1.40 0.03 93 1016.5
20211017131812 9 173 1.6 8.0 0.00 1.40 0.03 94 1016.4
20211017131306 9 173 0.0 4.8 0.00 1.40 0.03 94 1016.4
20211017130800 9 173 1.6 4.8 0.00 1.40 0.03 94 1016.4
20211017130254 9 173 3.2 8.0 0.00 1.40 0.03 94 1016.3
20211017125748 9 173 4.8 9.7 0.00 1.40 0.03 94 1016.4
20211017125242 9 173 6.4 9.7 0.00 1.40 0.03 95 1016.3
20211017124736 8 173 6.4 12.9 0.00 1.40 0.03 95 1016.2
20211017124230 8 173 8.0 12.9 0.03 1.40 0.03 95 1016.2
20211017123725 8 165 6.4 11.3 0.03 1.40 0.03 95 1016.2
20211017123219 8 113 4.8 11.3 0.03 1.40 0.03 95 1016.2
20211017122712 8 22 4.8 6.4 0.03 1.40 0.03 95 1016.1
20211017122205 8 22 4.8 6.4 0.03 1.40 0.03 95 1016.1
20211017121701 8 22 4.8 6.4 0.03 1.40 0.03 95 1016.0
20211017121153 8 22 3.2 8.0 0.03 1.40 0.03 95 1015.9
20211017120648 8 22 0.0 8.0 0.03 1.40 0.03 95 1016.0
20211017120142 8 22 0.0 0.0 0.03 1.40 0.03 96 1015.9
20211017115636 8 22 0.0 0.0 0.03 1.40 0.03 96 1016.0
20211017115130 8 22 0.0 0.0 0.03 1.40 0.03 96 1016.0
20211017114624 8 22 0.0 0.0 0.03 1.40 0.03 96 1015.9
20211017114118 7 21 0.0 0.0 0.00 1.37 0.00 96 1015.9
20211017113612 7 21 0.0 0.0 0.00 1.37 0.00 96 1015.9
20211017113107 7 21 0.0 0.0 0.00 1.37 0.00 95 1015.9
20211017112600 7 21 0.0 0.0 0.00 1.37 0.00 95 1015.9
20211017112054 7 21 0.0 0.0 0.00 1.37 0.00 95 1015.8
20211017111548 7 21 0.0 0.0 0.00 1.37 0.00 95 1015.8
20211017111045 7 21 0.0 0.0 0.00 1.37 0.00 96 1015.8
20211017110536 7 21 0.0 0.0 0.00 1.37 0.00 96 1015.7
20211017110030 7 21 0.0 0.0 0.00 1.37 0.00 95 1015.7
20211017105524 7 21 0.0 0.0 0.00 1.37 0.00 95 1015.6
20211017105019 7 21 0.0 0.0 0.00 1.37 0.00 95 1015.6
20211017104512 7 21 0.0 0.0 0.00 1.37 0.00 96 1015.6
20211017104006 7 21 0.0 0.0 0.00 1.37 0.00 95 1015.6
20211017103500 7 21 0.0 0.0 0.00 1.37 0.00 95 1015.5
20211017102955 7 21 0.0 0.0 0.00 1.37 0.00 95 1015.4
20211017102449 7 21 0.0 0.0 0.00 1.37 0.00 95 1015.5
20211017101942 7 21 0.0 0.0 0.00 1.37 0.00 95 1015.4
20211017101436 7 21 0.0 0.0 0.00 1.37 0.00 95 1015.5
20211017100930 7 21 0.0 0.0 0.00 1.37 0.00 95 1015.4
20211017100424 7 21 0.0 0.0 0.00 1.37 0.00 95 1015.4
20211017095917 7 21 0.0 0.0 0.00 1.37 0.00 95 1015.4
20211017095413 7 21 0.0 0.0 0.00 1.37 0.00 95 1015.4
20211017094906 7 21 0.0 0.0 0.00 1.37 0.00 95 1015.4
20211017094403 7 21 0.0 0.0 0.00 1.37 0.00 95 1015.3
20211017093855 7 21 0.0 0.0 0.00 1.37 0.00 95 1015.2
20211017093348 7 21 0.0 0.0 0.00 1.37 0.00 95 1015.3
20211017092842 7 21 0.0 0.0 0.00 1.37 0.00 95 1015.3
20211017092336 7 21 0.0 0.0 0.00 1.37 0.00 95 1015.3
20211017091830 7 21 0.0 0.0 0.00 1.37 0.00 95 1015.3
20211017091325 7 21 0.0 0.0 0.00 1.37 0.00 95 1015.3
20211017090818 7 21 0.0 0.0 0.00 1.37 0.00 95 1015.2
20211017090312 7 21 0.0 3.2 0.00 1.37 0.00 95 1015.2
20211017085807 7 21 0.0 3.2 0.00 1.37 0.00 95 1015.1
20211017085301 7 21 0.0 0.0 0.00 1.37 0.00 94 1015.2
20211017084755 7 21 0.0 0.0 0.00 1.37 0.00 94 1015.1
20211017084248 7 21 0.0 0.0 0.00 1.37 0.00 94 1015.1
20211017083742 7 21 0.0 0.0 0.00 1.37 0.00 94 1015.0
20211017083236 7 21 0.0 0.0 0.00 1.37 0.00 95 1015.0
20211017082731 7 21 0.0 0.0 0.00 1.37 0.00 94 1015.0
20211017082225 7 21 0.0 0.0 0.00 1.37 0.00 94 1015.1
20211017081718 7 21 0.0 0.0 0.00 1.37 0.00 94 1015.1
20211017081212 7 21 0.0 0.0 0.00 1.37 0.00 94 1015.0
20211017080706 7 21 0.0 0.0 0.00 1.37 0.00 94 1015.0
20211017080200 8 21 0.0 0.0 0.00 1.37 0.00 94 1015.0
20211017075653 8 21 0.0 0.0 0.00 1.37 0.00 95 1015.0
20211017075147 8 21 0.0 0.0 0.00 1.37 0.00 95 1015.1
20211017074642 7 21 0.0 0.0 0.00 1.37 0.00 95 1015.1
20211017074136 7 21 0.0 0.0 0.00 1.37 0.00 94 1015.2
20211017073634 7 21 0.0 0.0 0.00 1.37 0.00 94 1015.2
20211017073128 8 21 0.0 0.0 0.00 1.37 0.00 94 1015.2
20211017072622 8 21 0.0 0.0 0.00 1.37 0.00 94 1015.2
20211017072115 8 21 0.0 0.0 0.00 1.37 0.00 94 1015.2
20211017071610 8 21 0.0 0.0 0.00 1.37 0.00 94 1015.1
20211017071104 8 21 0.0 0.0 0.00 1.37 0.00 94 1015.1
20211017070558 8 21 0.0 0.0 0.00 1.37 0.00 94 1015.0
20211017070052 8 21 0.0 0.0 0.00 1.37 0.00 94 1015.0
20211017065547 8 21 0.0 0.0 0.00 1.37 0.00 94 1015.0
20211017065040 8 21 0.0 6.4 0.00 1.37 0.00 94 1015.0
20211017064536 8 21 0.0 6.4 0.00 1.37 0.00 94 1015.0
20211017064028 8 21 0.0 0.0 0.00 1.37 0.00 94 1015.2
20211017063522 8 21 0.0 0.0 0.00 1.37 0.00 93 1015.2
20211017063016 8 21 0.0 0.0 0.00 1.37 0.00 93 1015.2
20211017062509 8 21 0.0 0.0 0.00 1.37 0.00 93 1015.2
20211017062004 8 21 0.0 0.0 0.00 1.37 0.00 93 1015.3
20211017061458 8 21 0.0 0.0 0.00 1.37 0.00 93 1015.4
20211017060956 8 21 0.0 0.0 0.00 1.37 0.00 93 1015.4
20211017060449 8 21 0.0 0.0 0.00 1.37 0.00 93 1015.4
20211017055944 8 21 0.0 0.0 0.00 1.37 0.00 93 1015.5
20211017055438 9 21 0.0 0.0 0.00 1.37 0.00 93 1015.5
20211017054932 9 21 0.0 0.0 0.00 1.37 0.00 93 1015.6
20211017054427 9 21 0.0 0.0 0.00 1.37 0.00 93 1015.5
20211017053920 9 21 0.0 0.0 0.00 1.37 0.00 93 1015.5
20211017053414 9 21 0.0 0.0 0.00 1.37 0.00 93 1015.6
20211017052908 9 21 0.0 4.8 0.00 1.37 0.00 93 1015.6
20211017052403 9 21 0.0 4.8 0.00 1.37 0.00 93 1015.5
20211017051856 9 21 0.0 1.6 0.00 1.37 0.00 93 1015.5
20211017051350 9 21 1.6 6.4 0.00 1.37 0.00 94 1015.6
20211017050845 9 21 1.6 6.4 0.00 1.37 0.00 94 1015.5
20211017050338 9 21 0.0 6.4 0.00 1.37 0.00 94 1015.4
20211017045833 10 21 0.0 0.0 0.00 1.37 0.00 94 1015.6
20211017045328 10 21 0.0 0.0 0.00 1.37 0.00 94 1015.5
20211017044820 10 21 0.0 0.0 0.00 1.37 0.00 94 1015.5
20211017044315 10 21 0.0 0.0 0.00 1.37 0.00 94 1015.6
20211017043807 10 21 0.0 0.0 0.00 1.37 0.00 94 1015.6
20211017043303 10 21 0.0 0.0 0.00 1.37 0.00 94 1015.6
20211017042756 10 21 0.0 0.0 0.00 1.37 0.00 94 1015.6
20211017042250 10 21 0.0 0.0 0.00 1.37 0.00 94 1015.7
20211017041744 10 21 0.0 0.0 0.00 1.37 0.00 94 1015.6
20211017041239 10 21 0.0 0.0 0.00 1.37 0.00 94 1015.6
20211017040732 10 21 0.0 0.0 0.00 1.37 0.00 94 1015.6
20211017040226 10 21 0.0 0.0 0.00 1.37 0.00 94 1015.6
20211017035719 10 21 0.0 0.0 0.00 1.37 1.37 94 1015.6
20211017035214 10 21 0.0 0.0 0.00 1.37 1.37 94 1015.5
20211017034711 10 21 0.0 0.0 0.00 1.37 1.37 94 1015.6
20211017034202 10 21 0.0 0.0 0.00 1.37 1.37 95 1015.8
20211017033656 10 21 0.0 0.0 0.00 1.37 1.37 94 1015.8
20211017033150 10 21 0.0 0.0 0.00 1.37 1.37 94 1015.7
20211017032644 10 21 0.0 0.0 0.00 1.37 1.37 94 1015.6
20211017032138 10 21 0.0 0.0 0.00 1.37 1.37 94 1015.6
20211017031634 10 21 0.0 0.0 0.00 1.37 1.37 94 1015.6
20211017031127 10 21 0.0 0.0 0.00 1.37 1.37 94 1015.6
20211017030621 10 21 0.0 0.0 0.00 1.37 1.37 94 1015.5
20211017030114 10 21 0.0 0.0 0.00 1.37 1.37 94 1015.6
20211017025608 10 21 0.0 0.0 0.00 1.37 1.37 94 1015.5
20211017025103 10 21 0.0 0.0 0.00 1.37 1.37 94 1015.5
20211017024556 10 21 0.0 0.0 0.00 1.37 1.37 94 1015.4
20211017024050 10 21 0.0 0.0 0.00 1.37 1.37 94 1015.5
20211017023543 10 21 0.0 0.0 0.00 1.37 1.37 94 1015.6
20211017023039 10 21 0.0 0.0 0.00 1.37 1.37 94 1015.6
20211017022532 10 21 0.0 0.0 0.00 1.37 1.37 94 1015.5
20211017022026 10 21 0.0 0.0 0.00 1.37 1.37 93 1015.5
20211017021521 10 21 0.0 0.0 0.00 1.37 1.37 93 1015.5
20211017021020 10 21 0.0 0.0 0.00 1.37 1.37 93 1015.4
20211017020517 10 21 0.0 4.8 0.00 1.37 1.37 93 1015.4
20211017020017 10 21 1.6 4.8 0.00 1.37 1.37 92 1015.3
20211017015515 10 21 1.6 4.8 0.00 1.37 1.37 92 1015.2
20211017015013 10 21 0.0 3.2 0.00 1.37 1.37 92 1015.2
20211017014508 10 21 0.0 6.4 0.00 1.37 1.37 92 1015.2
20211017014009 10 21 1.6 6.4 0.00 1.37 1.37 92 1015.2
20211017013507 10 22 3.2 11.3 0.00 1.37 1.37 92 1015.1
20211017013005 10 22 3.2 11.3 0.00 1.37 1.37 92 1015.0
20211017012506 11 346 1.6 6.4 0.00 1.37 1.37 92 1015.0
20211017012004 11 346 1.6 6.4 0.00 1.37 1.37 91 1014.9
20211017011504 11 336 1.6 11.3 0.00 1.37 1.37 91 1014.8
20211017011000 11 336 1.6 11.3 0.00 1.37 1.37 91 1014.6
20211017010458 11 30 3.2 8.0 0.00 1.37 1.37 91 1014.3
20211017005958 11 30 4.8 14.5 0.00 1.37 1.37 91 1013.9
20211017005458 11 30 6.4 17.7 0.00 1.37 1.37 91 1013.9
20211017004956 11 24 9.7 20.9 0.00 1.37 1.37 92 1013.9
20211017004455 11 15 11.3 20.9 0.00 1.37 1.37 92 1013.3
20211017003958 11 34 11.3 20.9 0.00 1.37 1.37 92 1013.6
20211017003458 11 24 11.3 32.2 0.00 1.37 1.37 93 1013.5
20211017002952 11 34 9.7 32.2 0.00 1.37 1.37 93 1013.5
20211017002445 11 39 9.7 20.9 0.00 1.37 1.37 94 1013.3
20211017001940 12 36 9.7 20.9 0.00 1.37 1.37 95 1013.4
20211017001433 12 5 9.7 20.9 0.00 1.37 1.37 95 1013.2
20211017000928 12 44 9.7 16.1 0.00 1.37 1.37 96 1013.3
20211017000422 12 34 8.0 14.5 0.00 1.37 1.37 96 1013.3
20211016235916 12 32 6.4 12.9 0.00 1.37 1.37 96 1013.4
20211016235410 12 24 6.4 9.7 0.00 1.37 1.37 96 1013.4
20211016234903 12 20 8.0 16.1 0.00 1.37 1.37 96 1013.4
20211016234359 12 18 8.0 16.1 0.03 1.37 1.37 96 1012.8
20211016233852 12 19 8.0 14.5 0.03 1.37 1.37 96 1012.7
20211016233347 12 13 8.0 12.9 0.03 1.37 1.37 96 1012.8
20211016232840 12 22 6.4 9.7 0.03 1.37 1.37 96 1013.3
20211016232335 12 21 8.0 11.3 0.03 1.37 1.37 96 1013.3
20211016231835 12 22 8.0 11.3 0.05 1.37 1.37 96 1013.3
20211016231334 12 22 6.4 9.7 0.08 1.37 1.37 96 1013.2
20211016230837 12 21 4.8 9.7 0.08 1.37 1.37 95 1013.2
20211016230336 12 20 4.8 9.7 0.10 1.37 1.37 95 1013.1
20211016225836 12 22 4.8 9.7 0.18 1.37 1.37 95 1013.1
20211016225336 12 19 4.8 9.7 0.20 1.37 1.37 95 1013.3
20211016224836 12 21 6.4 14.5 0.25 1.37 1.37 95 1013.0
20211016224335 13 22 8.0 14.5 0.25 1.35 1.35 95 1012.9
20211016223835 13 33 8.0 14.5 0.30 1.35 1.35 95 1013.0
20211016223335 13 11 8.0 14.5 0.30 1.35 1.35 95 1013.1
20211016222835 13 28 8.0 14.5 0.33 1.35 1.35 95 1013.0
20211016222335 13 5 9.7 14.5 0.36 1.35 1.35 95 1012.8
20211016221836 13 22 9.7 14.5 0.36 1.32 1.32 95 1012.7
20211016221336 13 32 8.0 14.5 0.38 1.30 1.32 95 1012.4
20211016220835 13 21 8.0 14.5 0.41 1.30 1.30 95 1012.1
20211016220336 13 29 8.0 19.3 0.46 1.27 1.27 95 1012.1
20211016215830 13 13 8.0 19.3 0.46 1.19 1.19 94 1012.0
20211016215325 13 34 6.4 14.5 0.46 1.17 1.17 94 1012.1
20211016214819 13 28 4.8 12.9 0.41 1.12 1.14 94 1012.2
20211016214313 13 24 3.2 12.9 0.38 1.09 1.09 94 1012.3
20211016213806 13 21 4.8 14.5 0.36 1.04 1.04 94 1012.6
20211016213300 13 36 6.4 14.5 0.36 1.02 1.02 94 1011.9
20211016212753 13 24 9.7 17.7 0.38 1.02 1.02 93 1011.9
20211016212248 14 63 11.3 24.1 0.46 0.99 0.99 93 1011.4
20211016211743 14 18 12.9 24.1 0.46 0.94 0.97 93 1011.1
20211016211236 15 355 11.3 24.1 0.41 0.89 0.91 93 1010.9
20211016210730 15 35 4.8 19.3 0.38 0.86 0.89 94 1010.0
20211016210224 16 28 0.0 8.0 0.28 0.76 0.76 94 1010.0
20211016205718 16 30 0.0 4.8 0.25 0.74 0.74 94 1010.3
20211016205212 16 30 1.6 8.0 0.23 0.71 0.71 94 1010.3
20211016204707 16 30 1.6 11.3 0.25 0.71 0.71 94 1010.3
20211016204200 16 161 1.6 8.0 0.25 0.71 0.71 94 1010.3
20211016203654 16 196 1.6 6.4 0.23 0.69 0.69 94 1010.0
20211016203149 16 196 3.2 9.7 0.20 0.66 0.66 94 1009.9
20211016202642 16 196 1.6 9.7 0.15 0.61 0.64 94 1010.3
20211016202136 16 185 0.0 0.0 0.05 0.51 0.53 94 1010.2
20211016201630 16 185 0.0 0.0 0.03 0.48 0.48 94 1010.1
20211016201124 16 185 0.0 4.8 0.03 0.48 0.48 94 1010.0
20211016200618 16 185 1.6 4.8 0.03 0.48 0.48 94 1009.8
20211016200112 16 185 0.0 4.8 0.03 0.48 0.48 94 1009.8
20211016195606 16 238 1.6 11.3 0.03 0.48 0.48 94 1009.8
20211016195100 17 151 1.6 11.3 0.03 0.48 0.48 94 1009.9
20211016194554 17 101 0.0 4.8 0.00 0.46 0.46 94 1010.0
20211016194048 17 101 0.0 0.0 0.00 0.46 0.46 94 1009.7
20211016193542 17 101 0.0 0.0 0.00 0.46 0.46 94 1009.8
20211016193036 17 101 0.0 0.0 0.00 0.46 0.46 93 1009.5
20211016192530 17 101 0.0 0.0 0.00 0.46 0.46 93 1009.4
20211016192024 17 101 0.0 0.0 0.00 0.46 0.46 93 1009.3
20211016191518 17 101 0.0 0.0 0.00 0.46 0.46 93 1009.3
20211016191012 17 101 1.6 9.7 0.00 0.46 0.46 92 1009.2
20211016190506 17 101 1.6 9.7 0.00 0.46 0.46 92 1009.0
20211016190002 17 101 0.0 8.0 0.00 0.46 0.46 92 1009.1
20211016185455 17 346 0.0 0.0 0.03 0.46 0.46 92 1009.1
20211016184949 17 346 0.0 0.0 0.25 0.46 0.46 92 1008.9
20211016184442 17 346 0.0 0.0 0.41 0.46 0.46 92 1008.9
20211016183936 17 346 0.0 0.0 0.41 0.46 0.46 92 1008.9
20211016183430 17 346 0.0 0.0 0.41 0.46 0.46 92 1009.0
20211016182924 17 346 0.0 0.0 0.43 0.46 0.46 92 1009.0
20211016182418 17 346 1.6 11.3 0.43 0.46 0.46 91 1008.9
20211016181917 17 346 3.2 12.9 0.46 0.46 0.46 90 1008.8
20211016181409 17 211 4.8 12.9 0.46 0.46 0.46 90 1008.6
20211016180900 18 28 8.0 17.7 0.46 0.46 0.46 89 1008.3
20211016180354 18 294 8.0 22.5 0.46 0.46 0.46 89 1008.3
20211016175848 19 84 6.4 22.5 0.46 0.46 0.46 88 1008.1
20211016175342 20 122 6.4 16.1 0.38 0.38 0.41 89 1007.8
20211016174836 20 215 9.7 22.5 0.05 0.05 0.05 88 1007.7
20211016174330 21 180 9.7 22.5 0.05 0.05 0.05 87 1007.4
20211016173826 21 197 6.4 22.5 0.05 0.05 0.05 86 1007.6
20211016173318 21 203 6.4 22.5 0.05 0.05 0.05 85 1007.8
20211016172812 21 229 6.4 22.5 0.03 0.03 0.03 82 1007.9
20211016172312 21 205 6.4 19.3 0.03 0.03 0.03 80 1007.9
20211016171809 22 198 8.0 20.9 0.00 0.00 0.00 79 1008.0
20211016171311 22 207 8.0 20.9 0.00 0.00 0.00 78 1007.9
20211016170809 22 180 6.4 20.9 0.00 0.00 0.00 78 1007.9
20211016170307 22 195 8.0 22.5 0.00 0.00 0.00 79 1007.9
20211016165805 22 180 9.7 22.5 0.00 0.00 0.00 78 1008.0
20211016165308 22 209 12.9 32.2 0.00 0.00 0.00 77 1008.2
20211016164806 22 188 11.3 32.2 0.00 0.00 0.00 77 1008.3
20211016164304 22 182 9.7 19.3 0.00 0.00 0.00 78 1008.6
20211016163806 22 186 9.7 24.1 0.00 0.00 0.00 79 1008.2
20211016163303 22 174 9.7 24.1 0.00 0.00 0.00 78 1008.3
20211016162803 22 209 12.9 29.0 0.00 0.00 0.00 78 1008.6
20211016162305 22 179 17.7 33.8 0.00 0.00 0.00 78 1008.6
20211016161802 22 225 20.9 35.4 0.00 0.00 0.00 78 1008.8
20211016161304 22 163 17.7 35.4 0.00 0.00 0.00 77 1008.9
20211016160804 22 195 14.5 32.2 0.00 0.00 0.00 79 1008.9
20211016160303 22 184 19.3 38.6 0.00 0.00 0.00 78 1009.0
20211016155804 22 175 20.9 38.6 0.00 0.00 0.00 78 1009.2
20211016155257 22 192 20.9 37.0 0.00 0.00 0.00 77 1009.1